Location: Binningen
(47.7924°N, 8.7261°E)
Time: 20:40:43
(UTC+00:00)

Cosmos 1535 Rocket - Pass Details

Date: 17 May 2021
Orbit: 949 x 1003 km, 83.0° (Epoch: 21 June)

Event Time Altitude Azimuth Distance (km) Brightness Sun altitude
Rises 22:59:35 0° 351° (N) 3,687 9.0 -22.5°
Reaches altitude 10° 23:02:05 10° 352° (N) 2,743 8.0 -22.5°
Maximum altitude 23:08:24 85° 81° (E) 1,000 4.5 -22.6°
Enters shadow 23:10:34 45° 166° (SSE) 1,333 4.7 -22.6°
